Flag for Saudi Arabia Weather past 2 weeks in Jeddah, Saudi Arabia

Now
84 °F

Sunny.


Feels Like: 91 °F
Forecast: 80 / 91 °F
Wind: 7 mph from Northwest

Location: Jeddah King Abdul Aziz International Airport

Current Time: Oct 26, 2014 at 9:25:09 AM

Latest Report: Oct 26, 2014 at 9:00 AM


Visibility: 10 mi

Pressure: 29.89 "Hg

Humidity: 70%

Dew point: 73 °F

Location of JeddahLocation

Historic Weather in Jeddah — Graph

°F

Jeddah temperature yesterday

Maximum temperature yesterday: 95 °F (at 12:00 PM)
Minimum temperature yesterday: 79 °F (at 5:00 AM)
Average temperature yesterday: 85 °F

Past Weeks' High & Low Weather Summary

 TemperatureHumidityPressure
High97 °F (Oct 11, 11:00 AM)89% (Oct 19, 7:00 AM)29.92 "Hg (Oct 19, 7:00 AM)
Low77 °F (Oct 19, 4:00 AM)21% (Oct 16, 11:00 AM)29.74 "Hg (Oct 11, 4:00 PM)
Average86 °F59%29.83 "Hg
* Reported Oct 11 8:00 AM — Oct 26 8:00 AM, Jeddah, Weather by CustomWeather, © 2014

Note: Actual official high and low records may vary slightly from our data, if they occured in-between our weather recording intervals... More about our weather records

Advertising

Jeddah weather history for previous 24 hours

 ConditionsComfort  
Time TempWeatherWind HumidityBarometerVisibility
8:00 AM
Oct 26
81 °FSunny.7 mph79%29.86 "Hg10 mi
7:00 AM81 °FSunny.6 mph79%29.86 "Hg10 mi
6:00 AM77 °FClear.6 mph83%29.83 "Hg10 mi
5:00 AM81 °FClear.6 mph70%29.83 "Hg10 mi
4:00 AM79 °FClear.6 mph79%29.83 "Hg10 mi
3:00 AM81 °FClear.5 mph70%29.83 "Hg10 mi
2:00 AM81 °FClear.5 mph70%29.83 "Hg10 mi
1:00 AM82 °FClear.6 mph62%29.83 "Hg10 mi
12:00 AM82 °FClear.5 mph70%29.83 "Hg10 mi
11:00 PM
Oct 25
82 °FClear.5 mph70%29.83 "Hg10 mi
10:00 PM84 °FClear.6 mph66%29.83 "Hg10 mi
9:00 PM84 °FClear.5 mph66%29.86 "Hg10 mi
8:00 PM84 °FClear.6 mph58%29.83 "Hg10 mi
7:00 PM86 °FClear.8 mph62%29.80 "Hg10 mi
6:00 PM86 °FClear.12 mph55%29.80 "Hg10 mi
5:00 PM88 °FSunny.13 mph49%29.80 "Hg10 mi
4:00 PM90 °FSunny.14 mph52%29.77 "Hg10 mi
3:00 PM90 °FSunny.16 mph52%29.77 "Hg10 mi
2:00 PM93 °FSunny.16 mph41%29.77 "Hg10 mi
1:00 PM93 °FSunny.14 mph41%29.80 "Hg10 mi
12:00 PM95 °FSunny.12 mph36%29.83 "Hg10 mi
11:00 AM91 °FSunny.7 mph41%29.86 "Hg10 mi
10:00 AM88 °FSunny.9 mph49%29.89 "Hg10 mi
9:00 AM84 °FSunny.5 mph62%29.89 "Hg10 mi
Weather by CustomWeather, © 2014

See weather overviewHow to use our weather pages